Location: Gorze? G�rny
(49.8500°N, 19.5000°E)
Time: 04:23:28
(UTC+00:00)

NOSS 3-4 (C) - Pass Details

Date: 13 May 2021
Orbit: 873 x 1339 km, 63.4° (Epoch: 06 May)

Event Time Altitude Azimuth Distance (km) Brightness Sun altitude
Rises 19:41:48 0° 316° (NW) 3,776 8.8 -11.2°
Reaches altitude 10° 19:44:18 10° 316° (NW) 2,883 7.5 -11.5°
Maximum altitude 19:51:12 86° 230° (SW) 1,159 3.9 -12.2°
Enters shadow 19:57:30 17° 142° (SE) 2,710 5.1 -12.9°
